CT1ETE Weather Reports


Display with metric or nautical units.
time (UTC)temp
F
wind
direction
speed
MPH
gust
MPH
rain 1hr
in
rain 24hr
in
rain mn
in
humidity
%
barometer
mb
20260508090930 56 163 4.0 9.0 0.00 0.02 0.02 80 1009.2
20260508085428 57 148 3.0 7.0 0.00 0.02 0.02 80 1009.0
20260508083929 56 117 2.0 8.0 0.00 0.02 0.02 84 1008.9
20260508083135 54 162 3.0 9.0 0.00 0.02 0.02 86 1009.0
20260508081618 53 153 5.0 9.0 0.00 0.02 0.02 86 1008.9
20260508075424 53 148 4.0 8.0 0.00 0.02 0.02 81 1008.9
20260508073923 52 129 4.0 7.0 0.00 0.02 0.02 82 1008.9
20260508072424 52 176 2.0 4.0 0.00 0.02 0.02 80 1008.7
20260508071625 52 194 1.0 4.0 0.00 0.02 0.02 80 1008.5
20260508065424 52 132 1.0 3.0 0.01 0.02 0.02 82 1008.4
20260508063921 51 96 2.0 6.0 0.02 0.02 0.02 82 1008.1
20260508062422 51 105 5.0 10.0 0.02 0.02 0.02 83 1008.2
20260508061611 51 121 7.0 11.0 0.02 0.02 0.02 83 1008.2
20260508060119 51 87 7.0 11.0 0.02 0.02 0.02 85 1007.8
20260508053922 51 136 9.0 12.0 0.01 0.01 0.01 85 1008.1
20260508052422 51 121 6.0 11.0 0.01 0.01 0.01 86 1007.9
20260508050921 52 123 5.0 10.0 0.00 0.00 0.00 86 1008.1
20260508045421 52 201 2.0 5.0 0.00 0.00 0.00 86 1008.1
20260508043924 52 140 1.0 6.0 0.00 0.00 0.00 86 1007.8
20260508042415 52 123 2.0 4.0 0.00 0.00 0.00 86 1007.8
20260508040915 52 111 1.0 4.0 0.00 0.00 0.00 86 1007.7
20260508035413 52 112 0.0 0.0 0.00 0.00 0.00 86 1007.7
20260508033914 52 111 0.0 0.0 0.00 0.00 0.00 86 1007.8
20260508033114 52 112 0.0 0.0 0.00 0.00 0.00 86 1007.9
20260508030913 52 112 0.0 0.0 0.00 0.00 0.00 86 1008.0
20260508025409 52 112 0.0 3.0 0.00 0.00 0.00 86 1008.1
20260508023909 51 111 1.0 3.0 0.00 0.00 0.00 86 1008.2
20260508023120 51 111 2.0 4.0 0.00 0.00 0.00 86 1008.3
20260508023006 52 112 2.0 3.0 0.00 0.00 0.00 85 1008.4
20260508015407 52 112 2.0 4.0 0.00 0.00 0.00 86 1008.5
20260508013905 51 105 1.0 3.0 0.00 0.00 0.00 86 1008.7
20260508012405 52 105 0.0 2.0 0.00 0.00 0.00 86 1009.0
20260508010903 52 105 1.0 3.0 0.00 0.00 0.00 86 1009.2
20260508005401 52 105 1.0 3.0 0.00 0.00 0.00 86 1009.3
20260508004557 52 105 1.0 2.0 0.00 0.00 0.00 85 1009.3
20260508002359 53 105 1.0 3.0 0.00 0.00 0.00 85 1009.3
20260508000859 53 105 1.0 4.0 0.00 0.00 0.00 85 1009.5
20260508000058 53 103 2.0 4.0 0.00 0.00 0.00 85 1009.6
20260507233857 53 103 2.0 4.0 0.00 0.00 0.00 85 1009.7
20260507232355 53 103 3.0 6.0 0.00 0.00 0.00 85 1009.8
20260507230855 53 103 2.0 4.0 0.00 0.00 0.00 84 1009.8
20260507225355 53 103 2.0 3.0 0.00 0.00 0.00 84 1010.1
20260507224548 53 103 2.0 4.0 0.00 0.00 0.00 84 1010.2
20260507222348 53 103 3.0 6.0 0.00 0.00 0.00 84 1010.3
20260507220847 53 108 4.0 6.0 0.00 0.00 0.00 83 1010.4
20260507215347 53 164 4.0 5.0 0.00 0.00 0.00 84 1010.6
20260507213847 53 246 1.0 3.0 0.00 0.00 0.00 84 1010.6
20260507212345 53 246 2.0 4.0 0.00 0.00 0.00 84 1010.7
20260507211532 53 246 1.0 4.0 0.00 0.00 0.00 83 1010.7
20260507205341 54 246 5.0 9.0 0.00 0.00 0.00 83 1010.6
20260507203841 54 229 6.0 10.0 0.00 0.00 0.00 83 1010.6
20260507202339 55 217 5.0 8.0 0.00 0.00 0.00 82 1010.4
20260507200838 55 220 6.0 10.0 0.00 0.00 0.00 80 1010.2
20260507195339 55 227 5.0 11.0 0.00 0.00 0.00 79 1010.1
20260507193836 56 262 5.0 12.0 0.00 0.00 0.00 78 1009.9
20260507192332 56 252 7.0 13.0 0.00 0.00 0.00 77 1009.7
20260507191538 57 232 5.0 12.0 0.00 0.00 0.00 75 1009.5
20260507190035 58 236 7.0 13.0 0.00 0.00 0.00 73 1009.3
20260507183833 58 237 6.0 13.0 0.00 0.00 0.00 72 1009.3
20260507182332 59 233 9.0 14.0 0.00 0.00 0.00 70 1009.3
20260507180833 60 243 7.0 13.0 0.00 0.00 0.00 68 1009.2
20260507180031 62 224 9.0 14.0 0.00 0.00 0.00 65 1009.0
20260507173832 63 271 7.0 16.0 0.00 0.00 0.00 63 1009.0
20260507172332 64 246 9.0 16.0 0.00 0.00 0.00 58 1009.0
20260507170832 64 228 7.0 16.0 0.00 0.00 0.00 60 1009.0
20260507170045 64 242 12.0 20.0 0.00 0.00 0.00 60 1008.9
20260507163833 65 246 13.0 23.0 0.00 0.00 0.00 59 1008.9
20260507163024 65 246 13.0 22.0 0.00 0.00 0.00 60 1008.8
20260507160832 66 245 11.0 19.0 0.00 0.00 0.00 58 1008.6
20260507155332 66 248 11.0 18.0 0.00 0.00 0.00 58 1008.5
20260507154535 66 224 11.0 18.0 0.00 0.00 0.00 59 1008.6
20260507152332 67 238 7.0 17.0 0.00 0.00 0.00 57 1008.6
20260507150832 67 234 9.0 17.0 0.00 0.00 0.00 56 1008.8
20260507145332 67 246 8.0 18.0 0.00 0.00 0.00 58 1008.8
20260507143833 66 244 9.0 21.0 0.00 0.00 0.00 60 1008.9
20260507142333 66 226 9.0 19.0 0.00 0.00 0.00 59 1009.0
20260507140830 66 258 10.0 19.0 0.00 0.00 0.00 61 1009.3
20260507135331 65 244 9.0 17.0 0.00 0.00 0.00 64 1009.3
20260507133831 65 220 11.0 18.0 0.00 0.00 0.00 62 1009.4
20260507132329 65 242 11.0 18.0 0.00 0.00 0.00 63 1009.3
20260507130829 65 250 11.0 18.0 0.00 0.00 0.00 62 1009.4
20260507125329 65 236 10.0 19.0 0.00 0.00 0.00 64 1009.4
20260507123828 65 229 11.0 20.0 0.00 0.00 0.00 65 1009.5
20260507122329 64 232 10.0 19.0 0.00 0.00 0.00 69 1009.6
20260507121536 64 244 11.0 19.0 0.00 0.00 0.00 68 1009.7
20260507115329 64 237 9.0 17.0 0.00 0.00 0.00 68 1009.9
20260507115218 63 244 9.0 15.0 0.00 0.00 0.00 69 1009.8
20260507112328 63 208 10.0 15.0 0.00 0.00 0.00 68 1009.7
20260507110829 62 230 7.0 14.0 0.00 0.00 0.00 69 1009.6
20260507110028 62 277 6.0 12.0 0.00 0.00 0.00 68 1009.7
20260507103829 63 244 6.0 12.0 0.00 0.01 0.00 66 1009.6
20260507102329 64 235 5.0 12.0 0.00 0.01 0.00 64 1009.6
20260507100829 63 248 7.0 13.0 0.00 0.01 0.00 65 1009.6
20260507095329 62 247 5.0 9.0 0.00 0.01 0.00 68 1009.5
20260507093829 62 245 5.0 9.0 0.00 0.01 0.00 70 1009.6
20260507092329 62 243 5.0 9.0 0.00 0.01 0.00 69 1009.6
20260507091539 62 237 5.0 8.0 0.00 0.01 0.00 68 1009.6